Flag for Sweden Weather past 2 weeks in Norrköping, Sweden

Now
61 °F

Clear.


Feels Like: 61 °F
Forecast: 55 / 78 °F
Wind: 9 mph from Southwest

Location: Norrkoping Airport

Current Time: Aug 1, 2014 at 4:52:28 AM

Latest Report: Aug 1, 2014 at 2:50 AM


Visibility: 10 mi

Pressure: 29.83 "Hg

Humidity: 77%

Dew point: 54 °F

Location of NorrköpingLocation

Historic Weather in Norrköping — Graph

°F

Norrköping temperature yesterday

Maximum temperature yesterday: 77 °F (at 2:50 PM)
Minimum temperature yesterday: 59 °F (at 4:50 AM)
Average temperature yesterday: 69 °F

Past Weeks' High & Low Weather Summary

 TemperatureHumidityPressure
High88 °F (Jul 24, 1:50 PM)100% (Jul 18, 3:20 AM)30.30 "Hg (Jul 18, 3:20 AM)
Low52 °F (Jul 17, 4:50 AM)24% (Jul 24, 3:50 PM)29.68 "Hg (Jul 30, 4:50 PM)
Average70 °F69%30.03 "Hg
* Reported Jul 17 2:20 AM — Aug 1 2:50 AM, Norrköping, Weather by CustomWeather, © 2014

Note: Actual official high and low records may vary slightly from our data, if they occured in-between our weather recording intervals... More about our weather records

Advertising

Norrköping weather history for previous 24 hours

 ConditionsComfort  
Time TempWeatherWind HumidityBarometerVisibility
2:50 AM
Aug 1
61 °FClear.9 mph77%29.83 "Hg10 mi
2:20 AM61 °FClear.9 mph77%29.83 "Hg10 mi
1:50 AM61 °FClear.8 mph72%29.83 "Hg10 mi
1:20 AM61 °FClear.8 mph72%29.80 "Hg10 mi
12:50 AM61 °FCool.7 mph72%29.80 "HgN/A
12:20 AM63 °FMild.7 mph68%29.80 "HgN/A
11:50 PM
Jul 31
63 °FMild.7 mph68%29.80 "HgN/A
11:20 PM64 °FMild.8 mph64%29.80 "HgN/A
10:50 PM64 °FClear.8 mph64%29.80 "Hg10 mi
10:20 PM66 °FClear.10 mph56%29.77 "Hg10 mi
9:50 PM68 °FSunny.10 mph53%29.77 "Hg10 mi
9:20 PM70 °FSunny.13 mph50%29.77 "Hg10 mi
8:50 PM70 °FSunny.14 mph50%29.74 "Hg10 mi
8:20 PM72 °FSunny.14 mph47%29.74 "Hg10 mi
7:50 PM72 °FSunny.16 mph50%29.74 "Hg10 mi
7:20 PM73 °FSunny.17 mph47%29.74 "Hg10 mi
6:50 PM73 °FSunny.17 mph47%29.71 "Hg10 mi
6:20 PM73 °FPassing clouds.17 mph50%29.71 "HgN/A
5:50 PM75 °FPassing clouds.17 mph47%29.71 "HgN/A
5:20 PM75 °FSunny.17 mph41%29.71 "Hg10 mi
4:50 PM77 °FSunny.18 mph42%29.71 "Hg10 mi
4:20 PM77 °FSunny.16 mph42%29.71 "Hg10 mi
3:50 PM77 °FSunny.20 mph39%29.71 "Hg10 mi
3:20 PM77 °FSunny.16 mph39%29.71 "Hg10 mi
2:50 PM77 °FSunny.17 mph42%29.71 "Hg10 mi
2:20 PM75 °FSunny.16 mph41%29.71 "Hg10 mi
1:50 PM73 °FScattered clouds.15 mph47%29.71 "HgN/A
1:20 PM75 °FScattered clouds.14 mph47%29.71 "HgN/A
12:50 PM73 °FScattered clouds.14 mph47%29.71 "HgN/A
12:20 PM73 °FScattered clouds.17 mph50%29.71 "HgN/A
11:50 AM73 °FPassing clouds.15 mph50%29.71 "HgN/A
11:20 AM73 °FPassing clouds.15 mph50%29.71 "HgN/A
10:50 AM72 °FPassing clouds.16 mph57%29.71 "HgN/A
10:20 AM72 °FPassing clouds.13 mph61%29.71 "HgN/A
9:50 AM70 °FPassing clouds.14 mph60%29.71 "HgN/A
9:20 AM70 °FPassing clouds.13 mph64%29.68 "HgN/A
8:50 AM68 °FPassing clouds.14 mph69%29.68 "HgN/A
8:20 AM66 °FPassing clouds.13 mph78%29.68 "HgN/A
7:50 AM66 °FSunny.14 mph78%29.68 "Hg10 mi
7:20 AM64 °FSunny.12 mph83%29.68 "Hg10 mi
6:50 AM63 °FSunny.8 mph88%29.68 "Hg10 mi
6:20 AM61 °FSunny.8 mph88%29.68 "Hg10 mi
5:50 AM59 °FSunny.7 mph94%29.68 "Hg10 mi
5:20 AM59 °FCool.6 mph94%29.68 "HgN/A
4:50 AM59 °FCool.6 mph88%29.68 "HgN/A
4:20 AM61 °FCool.3 mph83%29.68 "HgN/A
Weather by CustomWeather, © 2014

See weather overviewHow to use our weather pages